contact:dominique.lefevre@mio.osupytheas.fr, maurice.libes@osupytheas.fr, didier.mallarino@osupytheas.fr
Project:EMSO http://www.emso-fr.org/EMSO-France
Depth: 2436.0 m
Title:EMSO Ligure Ouest : Data MII capteur AQUADOPP
Date,Latitude,Longitude,X_East,Y_North,Z_Up,Amplitude_X,Amplitude_Y,Amplitude_Z,Batterie,SoundSpeed,Heading,Pitch,Roll,Pressure,TIS,Speed,Direction
, degrees North, degrees East, m.s-1, m.s-1,m.s-1, 1, 1, 1, Volt, m.s-1, degree, degree, degree, dbar, degree_C, m.s-1, degree
2022-08-28T00:04:03,42.805,6.029,0.027,0.013,-0.007,103.0,102.0,100.0,13.4,1505.2,324.3,-0.7,1.8,2471.019,13.28,0.029,64.3
2022-08-28T00:07:03,42.805,6.029,-0.001,-0.004,-0.005,102.0,102.0,100.0,13.4,1505.2,324.0,-0.8,1.8,2470.989,13.28,0.004,194.0
2022-08-28T00:10:03,42.805,6.029,0.022,-0.013,-0.043,102.0,102.0,100.0,13.4,1505.2,330.1,-0.8,1.8,2470.998,13.28,0.025,120.6
2022-08-28T00:13:03,42.805,6.029,0.008,0.007,-0.018,101.0,102.0,100.0,13.4,1505.2,334.2,-0.8,1.8,2470.974,13.28,0.01,48.8
2022-08-28T00:16:03,42.805,6.029,0.013,0.006,-0.018,102.0,102.0,100.0,13.4,1505.2,326.1,-0.7,1.8,2470.957,13.29,0.014,65.2
2022-08-28T00:19:03,42.805,6.029,0.005,-0.002,-0.025,103.0,104.0,101.0,13.3,1505.2,318.7,-0.8,1.8,2470.957,13.29,0.005,111.8
2022-08-28T00:22:03,42.805,6.029,0.014,0.025,0.0,101.0,102.0,101.0,13.4,1505.2,319.3,-0.7,1.8,2470.956,13.29,0.028,29.3
2022-08-28T00:25:03,42.805,6.029,0.0,0.002,-0.009,102.0,103.0,101.0,13.4,1505.2,318.5,-0.8,1.8,2470.926,13.29,0.002,0.0
2022-08-28T00:28:03,42.805,6.029,0.0,0.002,-0.034,102.0,101.0,101.0,13.4,1505.2,317.2,-0.8,1.8,2470.963,13.29,0.002,0.0
2022-08-28T00:31:03,42.805,6.029,0.004,-0.005,-0.003,102.0,104.0,101.0,13.4,1505.2,326.6,-0.8,1.8,2470.955,13.29,0.006,141.3
2022-08-28T00:34:03,42.805,6.029,0.007,0.006,-0.026,104.0,102.0,100.0,13.4,1505.2,320.9,-0.7,1.8,2470.94,13.29,0.009,49.4
2022-08-28T00:37:03,42.805,6.029,0.006,-0.015,-0.043,103.0,102.0,100.0,13.4,1505.2,329.0,-0.8,1.8,2470.976,13.29,0.016,158.2
2022-08-28T00:40:03,42.805,6.029,0.008,0.002,-0.005,103.0,102.0,101.0,13.3,1505.2,327.9,-0.8,1.8,2470.925,13.29,0.008,76.0
2022-08-28T00:43:03,42.805,6.029,0.001,0.02,0.019,102.0,102.0,100.0,13.3,1505.2,327.9,-0.8,1.8,2470.944,13.29,0.02,2.9
2022-08-28T00:46:03,42.805,6.029,0.016,-0.01,-0.023,101.0,102.0,101.0,13.3,1505.2,319.2,-0.8,1.8,2470.982,13.29,0.018,122.0
2022-08-28T00:49:03,42.805,6.029,0.003,0.011,-0.028,102.0,102.0,101.0,13.3,1505.2,317.6,-0.8,1.8,2470.931,13.29,0.011,15.3
2022-08-28T00:52:03,42.805,6.029,-0.012,0.01,-0.006,102.0,103.0,101.0,13.4,1505.2,327.8,-0.7,1.8,2470.919,13.29,0.015,309.8
2022-08-28T00:55:03,42.805,6.029,0.023,-0.012,0.006,101.0,102.0,101.0,13.4,1505.2,331.5,-0.8,1.8,2470.94,13.29,0.025,117.6
2022-08-28T00:58:03,42.805,6.029,0.008,-0.006,-0.03,102.0,105.0,103.0,13.4,1505.2,330.2,-0.8,1.8,2470.933,13.29,0.01,126.9
2022-08-28T01:04:03,42.805,6.029,-0.019,-0.039,-0.013,102.0,105.0,102.0,13.3,1505.2,328.9,-0.8,1.8,2470.971,13.28,0.043,206.0
2022-08-28T01:07:03,42.805,6.029,0.026,-0.017,-0.028,103.0,102.0,102.0,13.4,1505.2,326.4,-0.8,1.9,2470.973,13.28,0.031,123.2
2022-08-28T01:10:02,42.805,6.029,0.009,0.006,0.034,102.0,103.0,101.0,13.4,1505.2,323.5,-0.8,1.8,2470.982,13.28,0.01,56.3
2022-08-28T01:13:03,42.805,6.029,0.033,-0.003,-0.052,102.0,103.0,100.0,13.4,1505.2,329.1,-0.8,1.8,2470.955,13.29,0.033,95.2
2022-08-28T01:16:03,42.805,6.029,-0.016,0.011,-0.02,102.0,102.0,100.0,13.4,1505.2,317.6,-0.8,1.8,2470.947,13.29,0.019,304.5
2022-08-28T01:19:03,42.805,6.029,0.026,-0.011,-0.027,103.0,102.0,100.0,13.3,1505.2,332.1,-0.7,1.8,2470.921,13.29,0.028,112.9
2022-08-28T01:22:03,42.805,6.029,0.007,-0.009,-0.023,103.0,103.0,101.0,13.4,1505.2,324.6,-0.8,1.8,2470.923,13.29,0.011,142.1
2022-08-28T01:25:03,42.805,6.029,0.007,0.037,-0.004,102.0,103.0,100.0,13.4,1505.2,326.9,-0.8,1.8,2470.875,13.29,0.037,10.7
2022-08-28T01:28:03,42.805,6.029,-0.003,0.008,0.008,101.0,102.0,101.0,13.4,1505.2,326.4,-0.7,1.8,2470.892,13.29,0.008,339.4
2022-08-28T01:31:03,42.805,6.029,0.001,0.01,0.0,102.0,103.0,101.0,13.3,1505.2,326.3,-0.8,1.8,2470.89,13.29,0.01,5.7
2022-08-28T01:34:03,42.805,6.029,0.008,-0.014,0.0,103.0,104.0,101.0,13.3,1505.2,329.7,-0.7,1.8,2470.907,13.29,0.016,150.3
2022-08-28T01:37:03,42.805,6.029,0.02,-0.003,0.022,104.0,102.0,99.0,13.4,1505.2,330.5,-0.7,1.8,2470.916,13.29,0.02,98.5
2022-08-28T01:40:03,42.805,6.029,0.016,-0.02,-0.031,101.0,103.0,101.0,13.4,1505.2,331.1,-0.8,1.8,2470.895,13.29,0.025,141.3
2022-08-28T01:43:03,42.805,6.029,-0.017,0.009,-0.019,102.0,103.0,100.0,13.4,1505.2,331.1,-0.8,1.8,2470.902,13.29,0.019,297.9
2022-08-28T01:46:03,42.805,6.029,0.014,-0.005,-0.048,103.0,101.0,100.0,13.4,1505.2,323.4,-0.8,1.9,2470.932,13.29,0.014,109.6
2022-08-28T01:49:03,42.805,6.029,0.002,0.0,-0.047,102.0,101.0,100.0,13.4,1505.2,325.9,-0.8,1.8,2470.92,13.29,0.002,90.0
2022-08-28T01:52:03,42.805,6.029,-0.016,0.003,-0.013,101.0,101.0,101.0,13.4,1505.2,332.0,-0.8,1.8,2470.88,13.29,0.016,280.6
2022-08-28T01:55:03,42.805,6.029,0.013,-0.005,-0.01,103.0,104.0,100.0,13.4,1505.2,325.4,-0.8,1.8,2470.889,13.29,0.013,111.0
2022-08-28T01:58:03,42.805,6.029,0.036,-0.015,0.001,101.0,101.0,100.0,13.4,1505.2,323.2,-0.8,1.8,2470.887,13.29,0.039,112.6
2022-08-28T02:04:03,42.805,6.029,0.012,-0.008,-0.023,102.0,101.0,100.0,13.4,1505.2,332.1,-0.8,1.8,2470.936,13.28,0.014,123.7
2022-08-28T02:07:03,42.805,6.029,0.019,-0.026,-0.022,101.0,103.0,100.0,13.3,1505.2,332.8,-0.8,1.8,2470.916,13.28,0.032,143.8
2022-08-28T02:10:02,42.805,6.029,0.025,0.02,0.0,104.0,99.0,101.0,13.4,1505.2,324.6,-0.8,1.8,2470.945,13.29,0.032,51.3
2022-08-28T02:13:04,42.805,6.029,-0.006,0.0,-0.012,101.0,102.0,100.0,13.3,1505.2,319.2,-0.8,1.8,2470.93,13.29,0.006,270.0
2022-08-28T02:16:03,42.805,6.029,0.011,0.019,0.0,101.0,101.0,102.0,13.4,1505.2,318.3,-0.7,1.8,2470.935,13.29,0.021,30.1
2022-08-28T02:19:03,42.805,6.029,-0.035,-0.01,-0.022,101.0,103.0,100.0,13.4,1505.2,320.1,-0.8,1.8,2470.901,13.29,0.036,254.1
2022-08-28T02:22:02,42.805,6.029,0.0,0.005,-0.019,103.0,101.0,99.0,13.4,1505.2,333.7,-0.8,1.8,2470.903,13.29,0.005,0.0
2022-08-28T02:25:02,42.805,6.029,0.004,-0.011,-0.006,102.0,100.0,103.0,13.4,1505.2,324.9,-0.8,1.8,2470.884,13.29,0.011,160.0
2022-08-28T02:28:02,42.805,6.029,0.02,-0.003,-0.004,101.0,102.0,100.0,13.3,1505.2,327.6,-0.8,1.8,2470.924,13.29,0.02,98.5
2022-08-28T02:31:02,42.805,6.029,0.009,-0.002,-0.039,102.0,101.0,100.0,13.3,1505.2,318.2,-0.8,1.8,2470.919,13.29,0.009,102.5
2022-08-28T02:34:03,42.805,6.029,0.006,-0.014,-0.017,102.0,101.0,101.0,13.4,1505.2,318.7,-0.8,1.8,2470.877,13.29,0.015,156.8
2022-08-28T02:37:02,42.805,6.029,0.007,0.0,-0.008,101.0,101.0,101.0,13.4,1505.2,326.6,-0.8,1.8,2470.885,13.29,0.007,90.0
2022-08-28T02:40:03,42.805,6.029,0.005,0.012,-0.019,103.0,101.0,100.0,13.3,1505.2,324.8,-0.8,1.8,2470.904,13.29,0.013,22.6
2022-08-28T02:43:03,42.805,6.029,0.0,-0.015,-0.032,101.0,102.0,100.0,13.4,1505.2,327.8,-0.7,1.8,2470.883,13.29,0.015,180.0
2022-08-28T02:46:03,42.805,6.029,-0.021,-0.001,-0.038,103.0,102.0,100.0,13.4,1505.2,331.1,-0.7,1.8,2470.875,13.29,0.021,267.3
2022-08-28T02:49:03,42.805,6.029,-0.003,0.009,-0.032,101.0,105.0,101.0,13.4,1505.2,322.8,-0.7,1.8,2470.886,13.29,0.009,341.6
2022-08-28T02:52:02,42.805,6.029,0.022,-0.013,-0.044,101.0,103.0,100.0,13.4,1505.2,325.6,-0.8,1.8,2470.875,13.29,0.025,120.6
2022-08-28T02:55:02,42.805,6.029,0.008,0.006,0.006,105.0,102.0,100.0,13.4,1505.2,324.8,-0.7,1.8,2470.917,13.29,0.01,53.1
2022-08-28T02:58:03,42.805,6.029,0.0,-0.003,-0.018,101.0,101.0,101.0,13.3,1505.2,328.3,-0.8,1.8,2470.896,13.29,0.003,180.0
2022-08-28T03:04:02,42.805,6.029,0.002,-0.016,-0.044,102.0,102.0,100.0,13.4,1505.2,317.6,-0.8,1.8,2470.91,13.29,0.016,172.9
2022-08-28T03:07:02,42.805,6.029,-0.005,-0.001,-0.025,103.0,103.0,101.0,13.4,1505.2,325.0,-0.8,1.8,2470.938,13.29,0.005,258.7
2022-08-28T03:10:03,42.805,6.029,0.009,-0.003,-0.045,104.0,102.0,99.0,13.4,1505.2,322.7,-0.8,1.8,2470.927,13.29,0.009,108.4
2022-08-28T03:13:03,42.805,6.029,0.007,-0.003,-0.043,103.0,102.0,100.0,13.3,1505.2,323.7,-0.7,1.9,2470.935,13.29,0.007,113.2
2022-08-28T03:16:02,42.805,6.029,-0.006,0.004,-0.027,101.0,104.0,101.0,13.4,1505.2,321.7,-0.8,1.8,2470.934,13.29,0.007,303.7
2022-08-28T03:19:03,42.805,6.029,0.017,0.013,-0.021,101.0,103.0,101.0,13.4,1505.2,322.7,-0.8,1.8,2470.909,13.29,0.021,52.6
2022-08-28T03:22:02,42.805,6.029,0.003,-0.001,-0.035,103.0,106.0,100.0,13.3,1505.2,327.3,-0.7,1.8,2470.932,13.29,0.003,108.4
2022-08-28T03:25:03,42.805,6.029,0.007,-0.025,-0.066,102.0,102.0,100.0,13.3,1505.2,320.6,-0.8,1.9,2470.938,13.29,0.025,164.4
2022-08-28T03:28:02,42.805,6.029,0.023,-0.018,-0.031,101.0,102.0,99.0,13.3,1505.2,330.0,-0.7,1.8,2470.893,13.29,0.029,128.0
2022-08-28T03:31:03,42.805,6.029,-0.001,0.014,0.028,101.0,102.0,100.0,13.4,1505.2,331.8,-0.8,1.8,2470.907,13.29,0.014,355.9
2022-08-28T03:34:03,42.805,6.029,0.0,0.016,-0.005,101.0,101.0,101.0,13.3,1505.2,324.9,-0.7,1.8,2470.873,13.29,0.016,0.0
2022-08-28T03:37:02,42.805,6.029,0.016,0.009,-0.024,101.0,101.0,101.0,13.4,1505.2,327.6,-0.7,1.8,2470.914,13.29,0.018,60.6
2022-08-28T03:40:03,42.805,6.029,-0.001,-0.016,-0.022,101.0,101.0,101.0,13.4,1505.2,331.6,-0.8,1.8,2470.877,13.29,0.016,183.6
2022-08-28T03:43:03,42.805,6.029,0.014,-0.016,-0.053,100.0,100.0,102.0,13.4,1505.2,324.6,-0.8,1.8,2470.884,13.29,0.021,138.8
2022-08-28T03:46:03,42.805,6.029,0.01,0.005,-0.032,103.0,101.0,101.0,13.4,1505.2,329.2,-0.8,1.8,2470.86,13.29,0.011,63.4
2022-08-28T03:49:03,42.805,6.029,0.008,-0.005,-0.037,101.0,103.0,100.0,13.4,1505.2,318.0,-0.7,1.8,2470.919,13.29,0.009,122.0
2022-08-28T03:52:02,42.805,6.029,0.01,-0.003,-0.042,103.0,102.0,101.0,13.4,1505.2,327.5,-0.7,1.8,2470.882,13.29,0.01,106.7
2022-08-28T03:55:03,42.805,6.029,0.016,0.008,-0.013,103.0,101.0,100.0,13.4,1505.2,328.7,-0.8,1.8,2470.909,13.29,0.017,63.4
2022-08-28T03:58:03,42.805,6.029,0.016,0.008,-0.013,101.0,101.0,101.0,13.3,1505.2,324.7,-0.8,1.8,2470.918,13.29,0.017,63.4
2022-08-28T04:04:02,42.805,6.029,0.0,0.005,-0.026,101.0,101.0,101.0,13.4,1505.2,327.1,-0.7,1.8,2470.986,13.29,0.005,0.0
2022-08-28T04:07:02,42.805,6.029,0.003,-0.004,-0.031,102.0,102.0,100.0,13.3,1505.2,326.1,-0.8,1.8,2470.959,13.29,0.005,143.1
2022-08-28T04:10:03,42.805,6.029,-0.008,0.005,-0.038,103.0,101.0,100.0,13.3,1505.2,332.6,-0.8,1.8,2470.98,13.29,0.009,302.0
2022-08-28T04:13:03,42.805,6.029,0.0,-0.003,-0.029,102.0,103.0,100.0,13.4,1505.2,332.5,-0.7,1.8,2470.985,13.29,0.003,180.0
2022-08-28T04:16:03,42.805,6.029,0.01,0.025,0.003,102.0,101.0,101.0,13.4,1505.2,322.8,-0.8,1.8,2470.927,13.29,0.026,21.8
2022-08-28T04:19:03,42.805,6.029,0.015,-0.001,0.004,102.0,102.0,101.0,13.4,1505.2,319.5,-0.7,1.8,2470.981,13.29,0.015,93.8
2022-08-28T04:22:02,42.805,6.029,-0.023,0.001,-0.054,101.0,102.0,100.0,13.3,1505.2,323.6,-0.8,1.8,2470.907,13.29,0.023,272.5
2022-08-28T04:25:03,42.805,6.029,-0.036,0.0,-0.034,103.0,100.0,100.0,13.4,1505.2,332.2,-0.8,1.8,2470.933,13.3,0.036,270.0
2022-08-28T04:28:03,42.805,6.029,-0.004,0.006,-0.025,102.0,102.0,100.0,13.4,1505.2,327.9,-0.7,1.8,2470.913,13.3,0.007,326.3
2022-08-28T04:31:03,42.805,6.029,-0.003,0.006,0.007,102.0,102.0,100.0,13.4,1505.2,327.3,-0.8,1.8,2470.948,13.3,0.006,333.4
2022-08-28T04:34:03,42.805,6.029,-0.006,0.014,-0.028,104.0,101.0,100.0,13.3,1505.2,319.3,-0.8,1.8,2470.956,13.3,0.015,336.8
2022-08-28T04:37:02,42.805,6.029,-0.012,0.006,-0.032,102.0,103.0,100.0,13.3,1505.2,327.8,-0.8,1.8,2470.922,13.3,0.013,296.6
2022-08-28T04:40:03,42.805,6.029,-0.024,0.006,-0.041,103.0,103.0,101.0,13.3,1505.2,328.1,-0.7,1.8,2470.923,13.3,0.024,284.0
2022-08-28T04:43:03,42.805,6.029,0.001,-0.006,-0.05,103.0,103.0,100.0,13.3,1505.2,327.8,-0.8,1.8,2470.924,13.3,0.006,170.5
2022-08-28T04:46:03,42.805,6.029,-0.009,0.018,-0.003,102.0,102.0,101.0,13.3,1505.2,318.7,-0.8,1.8,2470.923,13.3,0.02,333.4
2022-08-28T04:49:03,42.805,6.029,-0.006,0.021,0.009,102.0,102.0,101.0,13.3,1505.2,333.4,-0.7,1.8,2470.969,13.3,0.021,344.1
2022-08-28T04:52:02,42.805,6.029,-0.001,0.005,-0.011,101.0,103.0,100.0,13.4,1505.2,329.8,-0.8,1.8,2470.945,13.3,0.005,348.7
2022-08-28T04:55:03,42.805,6.029,0.013,0.002,-0.041,100.0,102.0,102.0,13.4,1505.2,318.1,-0.7,1.8,2470.894,13.3,0.013,81.3
2022-08-28T04:58:03,42.805,6.029,-0.019,0.001,-0.065,102.0,101.0,100.0,13.4,1505.2,319.6,-0.8,1.8,2470.931,13.3,0.019,273.0
2022-08-28T05:04:02,42.805,6.029,0.01,0.017,-0.009,102.0,100.0,101.0,13.4,1505.2,331.5,-0.8,1.8,2470.982,13.29,0.019,30.5
2022-08-28T05:07:02,42.805,6.029,-0.004,0.017,0.005,102.0,101.0,100.0,13.3,1505.2,326.3,-0.8,1.8,2470.993,13.29,0.017,346.8
2022-08-28T05:10:03,42.805,6.029,-0.002,-0.007,-0.057,101.0,102.0,100.0,13.4,1505.2,327.5,-0.7,1.9,2470.987,13.29,0.007,195.9
2022-08-28T05:13:03,42.805,6.029,0.017,-0.013,-0.018,101.0,101.0,100.0,13.4,1505.2,322.8,-0.8,1.9,2470.987,13.29,0.021,127.4
2022-08-28T05:16:03,42.805,6.029,0.009,0.0,-0.055,103.0,101.0,100.0,13.3,1505.2,327.0,-0.8,1.8,2470.951,13.29,0.009,90.0
2022-08-28T05:19:03,42.805,6.029,0.005,0.024,0.003,102.0,103.0,100.0,13.4,1505.2,330.4,-0.7,1.8,2471.066,13.29,0.024,11.8
2022-08-28T05:22:02,42.805,6.029,0.004,0.014,0.013,102.0,101.0,100.0,13.4,1505.2,320.7,-0.8,1.8,2470.961,13.29,0.014,15.9
2022-08-28T05:25:03,42.805,6.029,-0.03,0.005,-0.04,103.0,101.0,101.0,13.3,1505.2,321.7,-0.7,1.8,2470.935,13.3,0.03,279.5
2022-08-28T05:28:03,42.805,6.029,-0.009,0.022,-0.022,103.0,103.0,101.0,13.4,1505.2,319.1,-0.7,1.8,2470.965,13.3,0.023,337.8
2022-08-28T05:31:03,42.805,6.029,-0.018,-0.002,-0.014,104.0,104.0,100.0,13.4,1505.2,333.6,-0.8,1.8,2470.943,13.3,0.018,263.7
2022-08-28T05:34:03,42.805,6.029,0.01,0.029,-0.003,102.0,104.0,100.0,13.3,1505.2,329.4,-0.7,1.8,2470.977,13.3,0.03,19.0
2022-08-28T05:37:02,42.805,6.029,0.006,0.004,0.0,101.0,102.0,100.0,13.4,1505.2,327.8,-0.7,1.8,2470.996,13.3,0.007,56.3
2022-08-28T05:40:03,42.805,6.029,-0.006,0.026,-0.005,102.0,104.0,100.0,13.3,1505.2,329.7,-0.8,1.8,2470.979,13.3,0.026,347.0
2022-08-28T05:43:03,42.805,6.029,-0.001,-0.006,-0.036,101.0,101.0,101.0,13.4,1505.2,318.7,-0.8,1.9,2470.953,13.3,0.006,189.5
2022-08-28T05:46:03,42.805,6.029,-0.013,0.018,0.031,101.0,101.0,100.0,13.4,1505.2,324.6,-0.7,1.8,2470.974,13.3,0.022,324.2
2022-08-28T05:49:03,42.805,6.029,0.026,-0.001,-0.005,100.0,101.0,100.0,13.4,1505.2,323.5,-0.8,1.8,2470.97,13.3,0.026,92.2
2022-08-28T05:52:02,42.805,6.029,-0.018,0.006,-0.035,101.0,103.0,99.0,13.4,1505.2,318.7,-0.8,1.8,2470.982,13.3,0.018,288.4
2022-08-28T05:55:03,42.805,6.029,0.015,-0.006,-0.024,101.0,101.0,100.0,13.3,1505.2,317.2,-0.8,1.8,2470.994,13.3,0.016,111.8
2022-08-28T05:58:03,42.805,6.029,0.008,0.016,0.027,102.0,99.0,100.0,13.4,1505.2,332.1,-0.8,1.8,2470.998,13.3,0.017,26.6
2022-08-28T07:04:03,42.805,6.029,0.012,0.014,-0.012,102.0,102.0,100.0,13.4,1505.2,333.1,-0.8,1.8,2471.52,13.28,0.018,40.6
2022-08-28T07:07:03,42.805,6.029,0.011,0.007,-0.033,101.0,103.0,100.0,13.4,1505.2,322.9,-0.8,1.8,2471.437,13.28,0.013,57.5
2022-08-28T07:10:03,42.805,6.029,0.005,0.011,-0.01,102.0,101.0,100.0,13.3,1505.2,330.1,-0.8,1.8,2471.355,13.29,0.012,24.4
2022-08-28T07:13:03,42.805,6.029,-0.007,-0.007,-0.014,101.0,103.0,100.0,13.4,1505.2,324.6,-0.7,1.8,2471.285,13.29,0.009,225.0
2022-08-28T07:16:03,42.805,6.029,-0.003,0.011,-0.038,101.0,102.0,101.0,13.3,1505.2,323.4,-0.7,1.8,2471.175,13.29,0.011,344.7
2022-08-28T07:19:03,42.805,6.029,-0.019,0.011,-0.02,101.0,103.0,101.0,13.3,1505.2,325.9,-0.8,1.8,2471.152,13.29,0.021,300.1
2022-08-28T07:22:03,42.805,6.029,-0.005,0.006,-0.028,102.0,101.0,101.0,13.3,1505.2,320.1,-0.8,1.8,2471.105,13.29,0.007,320.2
2022-08-28T07:25:03,42.805,6.029,-0.001,-0.008,-0.028,102.0,102.0,100.0,13.4,1505.2,332.0,-0.7,1.8,2471.1,13.29,0.008,187.1
2022-08-28T07:28:03,42.805,6.029,-0.019,0.008,-0.02,102.0,102.0,100.0,13.4,1505.2,326.3,-0.8,1.8,2471.056,13.29,0.02,292.8
2022-08-28T07:31:03,42.805,6.029,-0.006,0.018,0.049,101.0,102.0,101.0,13.3,1505.2,324.4,-0.8,1.8,2471.078,13.29,0.018,341.6
2022-08-28T07:34:03,42.805,6.029,-0.007,0.035,-0.002,102.0,102.0,100.0,13.4,1505.2,329.6,-0.7,1.8,2471.054,13.29,0.035,348.7
2022-08-28T07:37:03,42.805,6.029,-0.007,0.003,-0.03,102.0,103.0,100.0,13.4,1505.2,329.2,-0.8,1.8,2471.032,13.29,0.007,293.2
2022-08-28T07:40:03,42.805,6.029,-0.033,0.019,-0.025,102.0,102.0,100.0,13.4,1505.2,329.4,-0.8,1.8,2471.057,13.29,0.038,299.9
2022-08-28T07:43:03,42.805,6.029,-0.016,0.006,0.004,101.0,102.0,100.0,13.4,1505.2,321.0,-0.8,1.8,2471.067,13.29,0.017,290.6
2022-08-28T07:46:03,42.805,6.029,-0.013,0.006,-0.032,101.0,103.0,99.0,13.4,1505.2,320.7,-0.8,1.8,2471.011,13.29,0.014,294.8
2022-08-28T07:49:03,42.805,6.029,0.02,-0.001,-0.035,101.0,102.0,100.0,13.3,1505.2,322.2,-0.7,1.8,2470.991,13.29,0.02,92.9
2022-08-28T07:52:02,42.805,6.029,-0.015,0.015,0.01,101.0,102.0,100.0,13.4,1505.2,322.4,-0.8,1.8,2471.031,13.29,0.021,315.0
2022-08-28T07:55:03,42.805,6.029,0.003,0.009,0.042,100.0,103.0,101.0,13.3,1505.2,328.8,-0.8,1.8,2471.036,13.29,0.009,18.4
2022-08-28T07:58:03,42.805,6.029,-0.009,0.0,-0.017,102.0,103.0,100.0,13.4,1505.2,317.2,-0.8,1.8,2471.015,13.29,0.009,270.0
2022-08-28T08:04:02,42.805,6.029,-0.027,0.017,-0.001,101.0,102.0,100.0,13.4,1505.2,321.1,-0.7,1.8,2471.063,13.29,0.031,302.2
2022-08-28T08:07:03,42.805,6.029,-0.001,0.029,0.019,101.0,101.0,102.0,13.3,1505.2,316.9,-0.8,1.8,2471.037,13.29,0.029,358.0
2022-08-28T08:10:03,42.805,6.029,-0.017,0.016,-0.031,101.0,101.0,101.0,13.4,1505.2,328.2,-0.8,1.8,2471.073,13.29,0.023,313.3
2022-08-28T08:13:03,42.805,6.029,-0.012,0.037,0.004,101.0,102.0,101.0,13.4,1505.2,330.8,-0.7,1.8,2471.053,13.29,0.038,342.0
2022-08-28T08:16:03,42.805,6.029,-0.015,0.014,0.014,101.0,102.0,100.0,13.4,1505.2,327.8,-0.7,1.9,2471.028,13.29,0.02,313.0
2022-08-28T08:19:03,42.805,6.029,0.005,0.008,0.002,102.0,103.0,100.0,13.4,1505.2,327.9,-0.8,1.8,2471.066,13.29,0.009,32.0
2022-08-28T08:22:03,42.805,6.029,0.004,-0.019,-0.047,101.0,102.0,100.0,13.4,1505.2,332.9,-0.8,1.8,2471.033,13.29,0.019,168.1
2022-08-28T08:25:03,42.805,6.029,-0.03,0.022,-0.031,101.0,102.0,101.0,13.3,1505.2,323.2,-0.7,1.8,2471.016,13.29,0.037,306.3
2022-08-28T08:28:03,42.805,6.029,0.011,0.004,-0.038,101.0,103.0,100.0,13.4,1505.2,316.9,-0.8,1.8,2471.015,13.29,0.011,70.0
2022-08-28T08:31:03,42.805,6.029,0.0,0.009,-0.012,101.0,102.0,100.0,13.4,1505.2,333.7,-0.7,1.8,2470.991,13.29,0.009,0.0
2022-08-28T08:34:03,42.805,6.029,-0.038,0.019,0.002,102.0,103.0,100.0,13.4,1505.2,328.7,-0.7,1.8,2471.01,13.29,0.042,296.6
2022-08-28T08:37:03,42.805,6.029,0.023,0.01,-0.006,101.0,103.0,100.0,13.4,1505.2,325.7,-0.8,1.8,2470.99,13.29,0.025,66.5
2022-08-28T08:40:03,42.805,6.029,-0.006,0.01,-0.02,101.0,100.0,102.0,13.4,1505.2,322.5,-0.7,1.8,2471.006,13.29,0.011,329.0
2022-08-28T08:43:03,42.805,6.029,-0.013,0.008,-0.008,102.0,102.0,100.0,13.4,1505.2,318.4,-0.8,1.8,2470.997,13.29,0.015,301.6
2022-08-28T08:46:03,42.805,6.029,-0.034,0.013,-0.016,100.0,101.0,101.0,13.4,1505.2,332.0,-0.8,1.8,2471.042,13.29,0.036,290.9
2022-08-28T08:49:03,42.805,6.029,-0.005,0.003,-0.014,102.0,102.0,101.0,13.3,1505.2,332.5,-0.8,1.8,2471.033,13.29,0.005,301.0
2022-08-28T08:52:03,42.805,6.029,-0.019,0.005,-0.037,102.0,102.0,101.0,13.3,1505.2,322.0,-0.8,1.8,2471.01,13.29,0.019,284.7
2022-08-28T08:55:03,42.805,6.029,0.004,0.004,0.004,103.0,101.0,100.0,13.4,1505.2,322.5,-0.8,1.8,2471.02,13.29,0.005,45.0
2022-08-28T08:58:03,42.805,6.029,0.003,0.007,-0.002,101.0,102.0,100.0,13.4,1505.2,324.5,-0.7,1.8,2471.013,13.29,0.007,23.2
2022-08-28T09:04:03,42.805,6.029,-0.011,0.014,-0.006,101.0,102.0,100.0,13.3,1505.2,332.1,-0.8,1.8,2471.041,13.29,0.017,321.8
2022-08-28T09:07:03,42.805,6.029,-0.009,0.019,-0.011,101.0,103.0,101.0,13.3,1505.2,332.2,-0.8,1.8,2471.063,13.29,0.021,334.7
2022-08-28T09:10:03,42.805,6.029,-0.007,0.0,-0.002,102.0,103.0,100.0,13.4,1505.2,331.3,-0.8,1.8,2471.011,13.29,0.007,270.0
2022-08-28T09:13:03,42.805,6.029,0.034,0.016,0.004,101.0,102.0,102.0,13.4,1505.2,324.8,-0.8,1.8,2471.018,13.29,0.037,64.8
2022-08-28T09:16:03,42.805,6.029,-0.001,0.006,0.024,102.0,102.0,101.0,13.4,1505.2,322.7,-0.8,1.8,2471.012,13.29,0.006,350.5
2022-08-28T09:19:03,42.805,6.029,0.017,-0.007,-0.038,102.0,102.0,101.0,13.3,1505.2,320.9,-0.7,1.8,2471.01,13.29,0.018,112.4
2022-08-28T09:22:03,42.805,6.029,0.004,-0.005,-0.008,101.0,102.0,100.0,13.3,1505.2,331.5,-0.7,1.8,2471.009,13.29,0.006,141.3
2022-08-28T09:25:03,42.805,6.029,0.0,0.011,0.023,101.0,102.0,100.0,13.4,1505.2,323.2,-0.8,1.8,2471.026,13.29,0.011,0.0
2022-08-28T09:28:03,42.805,6.029,-0.003,0.0,-0.025,100.0,103.0,101.0,13.4,1505.2,320.7,-0.8,1.8,2471.016,13.29,0.003,270.0
2022-08-28T09:31:03,42.805,6.029,-0.013,0.014,-0.009,101.0,102.0,100.0,13.3,1505.2,326.7,-0.8,1.8,2471.037,13.29,0.019,317.1
2022-08-28T09:34:03,42.805,6.029,0.004,0.007,-0.012,102.0,102.0,100.0,13.4,1505.2,319.1,-0.7,1.8,2471.028,13.29,0.008,29.7
2022-08-28T09:37:03,42.805,6.029,-0.02,0.012,0.006,102.0,102.0,101.0,13.4,1505.2,322.6,-0.7,1.8,2471.003,13.29,0.023,301.0
2022-08-28T09:40:03,42.805,6.029,0.009,0.019,0.004,102.0,103.0,100.0,13.3,1505.2,326.4,-0.8,1.8,2470.983,13.29,0.021,25.3
2022-08-28T09:43:03,42.805,6.029,-0.008,0.0,0.001,101.0,102.0,100.0,13.3,1505.2,319.9,-0.7,1.9,2470.957,13.29,0.008,270.0
2022-08-28T09:46:03,42.805,6.029,-0.018,0.009,0.002,101.0,102.0,100.0,13.4,1505.2,329.5,-0.7,1.8,2470.982,13.29,0.02,296.6
2022-08-28T09:49:03,42.805,6.029,-0.003,0.017,-0.001,101.0,101.0,101.0,13.4,1505.2,333.4,-0.8,1.8,2470.937,13.29,0.017,350.0
2022-08-28T09:52:03,42.805,6.029,0.009,0.001,-0.021,100.0,104.0,101.0,13.3,1505.2,328.3,-0.8,1.8,2470.98,13.29,0.009,83.7
2022-08-28T09:55:03,42.805,6.029,-0.016,0.011,-0.002,101.0,102.0,101.0,13.4,1505.2,333.9,-0.8,1.8,2470.985,13.29,0.019,304.5
2022-08-28T09:58:03,42.805,6.029,0.0,0.04,-0.006,101.0,102.0,100.0,13.4,1505.2,333.4,-0.7,1.8,2470.962,13.29,0.04,0.0
2022-08-28T10:04:02,42.805,6.029,-0.012,0.017,-0.006,101.0,101.0,101.0,13.4,1505.2,318.3,-0.7,1.8,2471.002,13.29,0.02,324.8
2022-08-28T10:07:03,42.805,6.029,-0.002,0.021,-0.027,102.0,103.0,101.0,13.4,1505.2,325.6,-0.8,1.8,2471.006,13.29,0.021,354.6
2022-08-28T10:10:03,42.805,6.029,-0.009,0.018,-0.018,102.0,102.0,101.0,13.4,1505.2,324.7,-0.7,1.8,2470.992,13.29,0.02,333.4
2022-08-28T10:13:03,42.805,6.029,0.004,0.024,-0.016,104.0,100.0,100.0,13.4,1505.2,327.8,-0.8,1.8,2470.98,13.29,0.024,9.5
2022-08-28T10:16:03,42.805,6.029,-0.019,0.009,-0.035,102.0,105.0,99.0,13.4,1505.2,324.3,-0.8,1.8,2470.964,13.29,0.021,295.3
2022-08-28T10:19:03,42.805,6.029,0.012,0.008,-0.018,102.0,102.0,101.0,13.4,1505.2,327.8,-0.7,1.8,2470.954,13.29,0.014,56.3
2022-08-28T10:22:03,42.805,6.029,-0.029,0.014,-0.011,101.0,102.0,100.0,13.4,1505.2,327.0,-0.7,1.8,2470.956,13.29,0.032,295.8
2022-08-28T10:25:03,42.805,6.029,-0.015,0.026,-0.009,102.0,103.0,100.0,13.3,1505.2,329.2,-0.8,1.8,2470.971,13.29,0.03,330.0
2022-08-28T10:28:03,42.805,6.029,-0.006,0.0,0.008,103.0,102.0,100.0,13.4,1505.2,321.7,-0.8,1.8,2470.981,13.29,0.006,270.0
2022-08-28T10:31:03,42.805,6.029,-0.004,0.02,-0.021,102.0,101.0,101.0,13.3,1505.2,329.1,-0.8,1.8,2470.947,13.29,0.02,348.7
2022-08-28T10:34:03,42.805,6.029,-0.019,0.025,-0.001,103.0,102.0,100.0,13.4,1505.2,326.9,-0.7,1.8,2470.942,13.29,0.031,322.8
2022-08-28T10:37:03,42.805,6.029,0.005,0.007,0.0,101.0,103.0,102.0,13.4,1505.2,328.3,-0.8,1.9,2470.974,13.29,0.008,35.5
2022-08-28T10:40:03,42.805,6.029,0.0,0.014,-0.008,103.0,101.0,101.0,13.4,1505.2,320.4,-0.8,1.9,2470.912,13.29,0.014,0.0
2022-08-28T10:43:03,42.805,6.029,0.012,0.04,0.037,101.0,103.0,100.0,13.3,1505.2,323.9,-0.8,1.8,2470.936,13.29,0.041,16.7
2022-08-28T10:46:03,42.805,6.029,0.014,0.009,-0.006,102.0,102.0,101.0,13.4,1505.2,320.8,-0.8,1.8,2470.911,13.29,0.016,57.3
2022-08-28T10:49:03,42.805,6.029,-0.017,0.025,0.003,102.0,102.0,101.0,13.4,1505.2,317.7,-0.8,1.8,2470.954,13.29,0.03,325.8
2022-08-28T10:52:03,42.805,6.029,0.003,0.024,0.005,101.0,102.0,101.0,13.4,1505.2,321.0,-0.8,1.8,2470.955,13.29,0.024,7.1
2022-08-28T10:55:03,42.805,6.029,-0.009,0.009,-0.009,103.0,103.0,101.0,13.4,1505.2,330.5,-0.8,1.8,2470.944,13.29,0.012,315.0
2022-08-28T10:58:03,42.805,6.029,-0.018,0.005,-0.005,102.0,104.0,100.0,13.4,1505.2,319.5,-0.8,1.8,2470.958,13.29,0.018,285.5